Location: Marsån
(66.4167°N, 22.2833°E)
Time: 10:25:18
(UTC+00:00)

Okean O Rocket - Pass Details

Date: 24 February 2024
Orbit: 619 x 640 km, 98.1° (Epoch: 16 April)

Event Time Altitude Azimuth Distance (km) Brightness Sun altitude
Exits shadow 17:18:24 - 149° (SSE) 2,759 4.5 -12.1°
Reaches altitude 10° 17:20:12 10° 148° (SSE) 2,019 3.8 -12.3°
Maximum altitude 17:24:35 73° 65° (ENE) 668 1.5 -12.7°
Drops below altitude 10° 17:28:57 10° 341° (NNW) 2,018 4.5 -13.1°
Sets 17:31:09 0° 339° (NNW) 2,926 5.4 -13.4°
